Погода в Нижнем Пронге

Россия / Хабаровский край     52°51′21″N   141°12′05″E
темп.,
°C
ветер,
м/с
пор.,
м/с
влажн.,
%
обл.,
%
осадки,
мм/ч
давл.,
гПа
погр.,
м
12 мая, ср
ср1201:00−2ю33845 0.0 101924
04:00−2ю33839 0.0 101924
07:00+2ююв34715 0.0 1018144
10:00+5юв34615 0.0 1017363
13:00+5ююв56611 0.0 1016472
16:00+5ююв686610 0.0 1015246
19:00+3ююв57781 0.0 1015159
22:000ююв46925 0.0 101579
13 мая, чт
чт1301:000ю589613 0.0 1014139
04:000ю479730 0.0 1013126
07:00+2ю58885 0.0 1012219
10:00+5ююв711771 0.0 1012375
13:00+5ююв811793 0.0 1011393
16:00+6ююв711773 0.0 1011370
19:00+5ю59821 0.0 1010302
22:00+2ю22937 0.0 101115
14 мая, пт
пт1401:00+1ю339667 0.0 101133
04:00+1ю229760 0.0 101040
07:00+2ююв239292 0.0 1011153
10:00+4юв348449 0.1 1012305
13:00+6юв347677 0.0 1011357
16:00+6юв337241 0.0 1011348
19:00+5ююв34786 0.0 1012123
22:00+2ююв22907 0.0 101320
15 мая, сб
сб1501:00+1ю339511 0.0 101345
04:00+1юв359985 0.0 101397
07:00+1ююв4697100 0.1 1013187
10:00+3ююв4894100 0.1 1010250
13:00+5ююв51185100 0.0 1008340
16:00+5ююв61485100 0.0 1005421
19:00+3ююв61597100 2.0 1002351
22:00+3юв4798100 10.3 999145
16 мая, вс
вс1601:00+3ююв71498100 4.8 996371
04:00+2ю359999 4.8 995106
07:00+2ююв2499100 0.1 994103
10:00+2св1299100 1.0 99493
13:00+3ссз3691100 1.6 995200
16:00+3ссв358697 1.8 995280
19:00+2всв1388100 0.0 996241
22:00+1зсз019470 0.0 99714